FW2567 Weather Reports


Display with metric or nautical units.
time (UTC)temp
F
wind
direction
speed
MPH
gust
MPH
rain 1hr
in
rain 24hr
in
rain mn
in
humidity
%
barometer
mb
20260504000030 86 21 3.0 10.0 0.00 0.00 0.00 26 1011.6
20260503234529 86 19 3.0 9.0 0.00 0.00 0.00 26 1011.7
20260503233033 86 10 3.0 10.0 0.00 0.00 0.00 25 1011.9
20260503230032 85 56 4.0 11.0 0.00 0.00 0.00 26 1012.3
20260503224530 85 62 5.0 11.0 0.00 0.00 0.00 26 1012.6
20260503223033 85 34 5.0 11.0 0.00 0.00 0.00 28 1012.8
20260503221528 84 26 5.0 11.0 0.00 0.00 0.00 28 1013.0
20260503220107 84 27 5.0 14.0 0.00 0.00 0.00 28 1013.2
20260503214531 83 40 5.0 12.0 0.00 0.00 0.00 29 1013.4
20260503213029 81 42 6.0 15.0 0.00 0.00 0.00 29 1013.5
20260503211529 81 30 7.0 14.0 0.00 0.00 0.00 29 1013.7
20260503210031 82 52 5.0 12.0 0.00 0.00 0.00 29 1014.0
20260503203031 82 92 5.0 12.0 0.00 0.00 0.00 28 1014.3
20260503201608 82 76 5.0 12.0 0.00 0.00 0.00 28 1014.5
20260503200033 83 66 5.0 14.0 0.00 0.00 0.00 28 1014.6
20260503194530 83 81 5.0 12.0 0.00 0.00 0.00 28 1014.8
20260503193030 84 85 7.0 17.0 0.00 0.00 0.00 27 1014.9
20260503191532 85 97 4.0 14.0 0.00 0.00 0.00 28 1015.0
20260503190029 85 103 4.0 10.0 0.00 0.00 0.00 29 1015.0
20260503184529 83 46 2.0 9.0 0.00 0.00 0.00 33 1015.2
20260503183028 82 359 4.0 9.0 0.00 0.00 0.00 35 1015.3
20260503181530 82 5 2.0 7.0 0.00 0.00 0.00 36 1015.4
20260503180030 81 333 2.0 5.0 0.00 0.00 0.00 37 1015.6
20260503174531 81 356 0.0 3.0 0.00 0.00 0.00 37 1015.7
20260503171529 79 25 0.0 4.0 0.00 0.00 0.00 39 1015.9
20260503071531 51 202 2.0 4.0 0.00 0.00 0.00 80 1016.3
20260503070107 52 144 1.0 3.0 0.00 0.00 0.00 77 1016.3
20260503054540 53 220 0.0 3.0 0.00 0.00 0.00 81 1016.0
20260503051531 54 145 1.0 3.0 0.00 0.00 0.00 77 1016.0
20260503050108 55 154 1.0 4.0 0.00 0.00 0.00 75 1015.9
20260503044531 0 0 0.0 0.0 0.00 0.00 0.00 100
20260503043032 58 247 0.0 2.0 0.00 0.00 0.00 69 1015.8
20260503041531 60 249 0.0 3.0 0.00 0.00 0.00 66 1015.7
20260503040039 63 237 1.0 3.0 0.00 0.00 0.00 60 1015.5
20260503034532 64 157 2.0 5.0 0.00 0.00 0.00 60 1015.2
20260503033029 65 158 3.0 4.0 0.00 0.00 0.00 60 1014.9
20260503031531 65 157 3.0 6.0 0.00 0.00 0.00 62 1014.7
20260503030032 66 154 2.0 4.0 0.00 0.00 0.00 63 1014.4
20260503024606 67 200 0.0 2.0 0.00 0.00 0.00 62 1014.2
20260503023031 69 202 0.0 0.0 0.00 0.00 0.00 58 1014.1
20260503020106 73 177 2.0 3.0 0.00 0.00 0.00 50 1014.0
20260503014530 75 175 1.0 3.0 0.00 0.00 0.00 46 1013.9
20260503013031 76 145 0.0 2.0 0.00 0.00 0.00 39 1014.0
20260503011528 78 145 1.0 6.0 0.00 0.00 0.00 37 1013.9
20260503004530 78 136 0.0 3.0 0.00 0.00 0.00 36 1014.0
20260503000151 78 61 5.0 13.0 0.00 0.00 0.00 35 1014.0